Regional Weather Roundup
Issued by NWS

Home | Current Version | Previous Version | Text Only | Print | Product List | Glossary Off
Versions: 1 2 3 4 5 6 7 8 9 10 11 12 13 14 15 16 17 18 19 20 21 22 23 24 25 26 27 28 29 30 31 32 33 34 35 36 37 38 39 40 41 42 43 44 45 46 47 48 49 50

000
ASUS45 KBOI 021710
RWRID

IDAHO REGIONAL WEATHER ROUNDUP
NATIONAL WEATHER SERVICE BOISE ID
1100 AM MDT THU JUL 02 2015

NOTE: "FAIR" INDICATES FEW OR NO CLOUDS BELOW 12000 FEET
WITH NO SIGNIFICANT WEATHER AND/OR OBSTRUCTIONS TO VISIBILITY

IDZ012-014-021800-
SOUTHWEST IDAHO


CITY           SKY/WX    TMP DP  RH WIND       PRES   REMARKS
BOISE          SUNNY     85  51  31 W7        30.01F
CALDWELL       SUNNY     86  48  26 W6        30.01F
MOUNTAIN HOME  SUNNY     93  42  17 NW10      30.00F
$$

IDZ016-017-021800-
SOUTHCENTRAL IDAHO


CITY           SKY/WX    TMP DP  RH WIND       PRES   REMARKS
BURLEY         SUNNY     82  47  29 CALM      30.10F
JEROME         MOSUNNY   80  45  28 SW5       30.10S
TWIN FALLS     MOSUNNY   87  43  21 NW8       30.08F
$$

IDZ019>023-021800-
SOUTHEAST IDAHO


CITY           SKY/WX    TMP DP  RH WIND       PRES   REMARKS
IDAHO FALLS    SUNNY     79  52  38 N9        30.14F
POCATELLO      SUNNY     82  52  35 N6        30.13F
REXBURG        SUNNY     80  54  40 VRB5      30.14F
$$

IDZ006-010-011-018-031-032-021800-
CENTRAL IDAHO MOUNTAINS


CITY           SKY/WX    TMP DP  RH WIND       PRES   REMARKS
MCCALL         SUNNY     79  47  32 SW5       30.16F
STANLEY          N/A     74  37  26 VRB3      30.29F
SALMON         SUNNY     75  43  31 NW3       30.12F
CHALLIS        SUNNY     79  41  25 CALM      30.18F
$$

IDZ002-004-006-007-026-021800-
NORTHERN IDAHO


CITY           SKY/WX    TMP DP  RH WIND       PRES   REMARKS
LEWISTON       SUNNY     84  50  30 VRB5      29.98F
LOWELL           N/A     78  50  37 CALM      30.02F
COEUR D`ALENE  SUNNY     82  55  39 NE12      30.04S
MULLAN PASS    SUNNY     69  49  48 VRB6      30.27S
$$


USA.gov is the U.S. government's official web portal to all federal, state and local government web resources and services.